Regional Weather Roundup
Issued by NWS San Angelo, TX

Home | Current Version | Previous Version | Text Only | Print | Product List | Glossary On
Versions: 1 2 3 4 5 6 7 8 9 10 11 12 13 14 15 16 17 18 19 20 21 22 23 24 25 26 27 28 29 30 31 32 33 34 35 36 37 38 39 40 41 42 43 44 45 46 47 48 49 50
000
ASUS44 KSJT 202310
RWRSJT
WEST CENTRAL TEXAS REGIONAL WEATHER ROUNDUP
NATIONAL WEATHER SERVICE SAN ANGELO TX
600 PM CDT SUN APR 20 2014

NOTE: "FAIR" INDICATES FEW OR NO CLOUDS BELOW 12,000 FEET WITH NO
SIGNIFICANT WEATHER AND/OR OBSTRUCTIONS TO VISIBILITY.

TXZ049-054-064>066-071>073-076>078-098-099-113-114-127-128-139-140-
154-155-168>170-210000
...LOCATIONS ACROSS WEST CENTRAL TEXAS...

CITY           SKY/WX    TMP DP  RH WIND       PRES   REMARKS
SAN ANGELO     CLOUDY    73  63  70 S8        30.01S
ABILENE        CLOUDY    68  64  87 SE14      30.01F
DYESS AFB      CLOUDY    69  63  81 SE12      30.00F
JUNCTION       CLOUDY    69  63  81 S9        30.04S
SWEETWATER     PTSUNNY   73  62  68 SE14      30.03F
BROWNWOOD      PTSUNNY   66  66 100 SE6       30.04S FOG
COLEMAN        DRIZZLE   65  63  94 S5        30.04S
SONORA         CLOUDY    72  63  73 S10       30.04S
OZONA          FAIR      70  59  68 S14       30.05S
BRADY          CLOUDY    64  64 100 S6        30.04S
$$

TEXAS PANHANDLE/OKLAHOMA PANHANDLE

CITY           SKY/WX    TMP DP  RH WIND       PRES   REMARKS
AMARILLO       LGT RAIN  68  53  58 SW15      29.93R
BORGER         PTSUNNY   76  44  32 W9G17     29.90F
CANADIAN       TSTM      57  53  86 SE13      29.96R
DALHART        CLOUDY    68  43  40 N10       29.97R
DUMAS          MOCLDY    69  45  41 CALM      29.93F
GUYMON         NOT AVBL
HEREFORD       MOCLDY    72  42  33 SW18G25   29.96S
PAMPA          CLOUDY    60  53  77 S12G18    29.94S
PERRYTON       CLOUDY    58  54  85 S5        29.93R
$$

SOUTHERN PANHANDLE/SOUTH PLAINS/ROLLING PLAINS

CITY           SKY/WX    TMP DP  RH WIND       PRES   REMARKS
LUBBOCK        PTSUNNY   76  49  38 SW18G24   29.95S
SNYDER         SUNNY     74  63  67 SE14      29.98F
CHILDRESS      CLOUDY    66  61  84 NE15G23   29.92S
SEMINOLE       PTCLDY    79  40  25 W16       29.98F
$$

PERMIAN BASIN

CITY           SKY/WX    TMP DP  RH WIND       PRES   REMARKS
MIDLAND        MOSUNNY   80  51  36 S13       29.98F
ODESSA         MOSUNNY   79  49  34 S13       29.98F
WINK           SUNNY     83  42  23 SW15G23   29.95F
$$

FAR WEST/SOUTHWEST MOUNTAINS/TRANS PECOS

CITY           SKY/WX    TMP DP  RH WIND       PRES   REMARKS
ALPINE         MOCLDY    76  37  23 W6        30.11S
DRYDEN           N/A     85  60  42 E14       29.97S
EL PASO        MOSUNNY   78  35  21 SW12G23   30.04F
FORT STOCKTON  CLOUDY    80  46  30 N5        29.99F
GUADALUPE PASS SUNNY     71  37  28 SW31G38   30.10F
MARFA          MOSUNNY   77  30  18 W9G24     30.11S
PECOS          CLEAR     84  39  20 W9G20     29.96S
$$

DALLAS/FORT WORTH METROPLEX

CITY           SKY/WX    TMP DP  RH WIND       PRES   REMARKS
DFW AIRPORT    CLOUDY    73  54  51 SE7       30.03F
FTW MEACHAM    LGT RAIN  71  60  68 S5        30.04R
DAL-EXECUTIVE  CLOUDY    74  54  49 SE13      30.03F
GRAND PRAIRIE  PTSUNNY   73  54  49 S8        30.06S
ADDISON        CLOUDY    73  52  46 SE8       30.06R
MESQUITE       CLOUDY    73  54  49 SE7       30.06
LANCASTER      CLOUDY    72  54  52 S3        30.06S
$$

NORTH CENTRAL TEXAS

CITY           SKY/WX    TMP DP  RH WIND       PRES   REMARKS
SHRMAN/DENISON CLOUDY    71  53  52 S13G22    30.08S
GAINESVILLE    HVY RAIN  61  59  94 W10       30.13R
BRIDGEPORT     LGT RAIN  62  62  99 E3        30.08F
DENTON         TSTM      61  57  88 NW12G23   30.09R FOG
WAXAHACHIE     CLOUDY    72  55  54 S5        30.05S
GRANBURY       RAIN      67  63  86 CALM      30.05S
$$

WESTERN NORTH TEXAS

CITY           SKY/WX    TMP DP  RH WIND       PRES   REMARKS
WICHITA FALLS  MOSUNNY   68  60  75 SE18      30.00S
VERNON         PTCLDY    73  59  62 SE23      29.99S
BRECKENRIDGE   LGT RAIN  66  65  95 E7        30.03F
COMANCHE       DRIZZLE   66  65  96 S6        30.04S
$$

CENTRAL AND SOUTH CENTRAL TEXAS

CITY           SKY/WX    TMP DP  RH WIND       PRES   REMARKS
AUSTIN/BERGSTM CLOUDY    75  61  61 E9        30.03F
WACO           CLOUDY    74  58  57 S12       30.02F
HILLSBORO      MOCLDY    75  56  50 SE9       30.04R
TEMPLE         CLOUDY    73  57  56 S10       30.06S
KILLEEN-GRAY   CLOUDY    72  61  68 S14G21    30.04F
FORT HOOD      NOT AVBL
GEORGETOWN     CLOUDY    73  57  56 MISG      30.04S
LAGO VISTA     CLOUDY    69  63  81 SE3       30.06S
SAN MARCOS     CLOUDY    75  57  53 S10       30.05F
NEW BRAUNFELS  CLOUDY    75  61  61 S9        30.02F
RANDOLPH AFB   PTSUNNY   76  60  58 SE12      30.03F
SAN ANTONIO    DRIZZLE   74  62  66 SE14      30.03F
STINSON        CLOUDY    76  63  64 S12       30.00F
PLEASANTON     NOT AVBL
LA GRANGE      SUNNY     78  58  50 S13       30.03S
GIDDINGS       CLOUDY    76  58  52 S7        30.08S
$$

EAST TEXAS

CITY           SKY/WX    TMP DP  RH WIND       PRES   REMARKS
PARIS          PTSUNNY   73  57  56 S3        30.07S
CLARKSVILLE    CLOUDY    76  56  49 CALM      30.05F
TYLER          CLOUDY    77  54  44 SW12      30.05F
LONGVIEW       CLOUDY    79  56  45 S5        30.04F
PALESTINE      PTCLDY    79  54  41 S10       30.06F
NACOGDOCHES    SUNNY     81  55  41 S10       30.05F
$$

TEXAS HILL COUNTRY AND EDWARDS PLATEAU

CITY           SKY/WX    TMP DP  RH WIND       PRES   REMARKS
LLANO          CLOUDY    70  63  78 S5        30.07S
HORSESHOE BAY  CLOUDY    70  62  76 SE5       30.03F
KERRVILLE      DRIZZLE   65  63  92 S9        30.05S
FREDERICKSBRG  CLOUDY    67  61  83 SE5       30.05S
ROCKSPRINGS    LGT RAIN  64  64 100 SE8       30.07S
HONDO          CLOUDY    73  65  75 S8        30.04F
UVALDE         CLOUDY    73  70  90 SE10      30.01F
DEL RIO        PTSUNNY   74  66  76 SE10      29.97F
$$

SOUTHEAST TEXAS

CITY           SKY/WX    TMP DP  RH WIND       PRES   REMARKS
COLLEGE STN    SUNNY     79  57  46 S13       30.04F
CALDWELL       PTCLDY    75  54  46 SW13      30.07F
CROCKETT       PTCLDY    81  61  50 SE8       30.08S
BRENHAM        SUNNY     77  55  45 SE7       30.05F
HUNTSVILLE     MOSUNNY   79  50  36 VRB7      30.05F
CONROE         SUNNY     78  52  40 SE12G17   30.07F
HOUSTON BUSH   MOSUNNY   79  51  37 S9G20     30.06F
HOUSTON HOBBY  MOSUNNY   77  53  43 S13       30.07F
PERLAND        SUNNY     76  53  44 S14       30.09F
WHARTON        PTCLDY    74  55  49 SE14      30.07S
$$

THE UPPER TEXAS COAST

CITY           SKY/WX    TMP DP  RH WIND       PRES   REMARKS
ORANGE         CLEAR     77  52  42 S8        30.10F
PORT ARTHUR    SUNNY     77  54  44 S9        30.09S
GALVESTON      SUNNY     71  64  78 SE12      30.10S
ANGLETON       SUNNY     74  59  59 S14       30.09S
BAY CITY       CLEAR     76  62  62 SE12      30.08S
$$

TEXAS COASTAL BEND, RIO GRANDE PLAINS DEEP SOUTH TEXAS

CITY           SKY/WX    TMP DP  RH WIND       PRES   REMARKS
VICTORIA       CLOUDY    77  59  53 SE17      30.06R
BEEVILLE       FAIR      78  61  57 SE14G21   30.03S
ROCKPORT       SUNNY     75  64  68 SE18G25   30.06S
PORT ARANSAS   CLEAR     73  66  79 SE12      30.05F
PORT LAVACA    PTCLDY    75  61  62 SE15      30.06S
CORPUS CHRISTI MOSUNNY   78  63  59 SE16      30.04S
KINGSVILLE NAS PTSUNNY   76  65  68 SE17G26   30.03S
COTULLA        CLOUDY    77  63  61 SE10      30.00F
LAREDO         CLOUDY    81  66  60 SE15      30.00F
BROWNSVILLE    PTSUNNY   75  66  73 SE17      30.03F
PORT ISABEL    CLOUDY    75  66  73 SE17      30.03F
HEBBRONVILLE   CLOUDY    75  64  68 SE14      30.02S
MCALLEN        CLOUDY    77  64  64 SE18G24   30.01S
WESLACO        CLOUDY    77  63  62 SE13G22   30.01S
FALFURRIAS     CLOUDY    78  65  64 SE12      30.01S
EDINBURG       CLOUDY    79  64  60 SE15G21   30.01F
$$



USA.gov is the U.S. government's official web portal to all federal, state and local government web resources and services.